[[{"header":{"parameterUnit":"m.s-1","parameterCategory":1,"la1":30.2992,"la2":30.254,"lo1":-89.0895,"lo2":-89.0443,"dy":0.0025,"dx":0.0025,"nx":19,"ny":19,"refTime":"2026-03-16T09:00:00:Z","depth":0,"parameterNumber":2,"parameterNumberName":"U-component_of_WINDS"},"data":[0,0,0,-0.8742,-0.8743,-0.8781,-0.8781,-0.8837,-0.8838,0,0,0,0,0,0,0,0,0,0,0,-0.8735,-0.8735,-0.8742,-0.8743,-0.8781,-0.8781,-0.8837,-0.8838,0,0,0,0,0,0,0,0,0,0,0,-0.8734,-0.8735,-0.8736,-0.8743,-0.8781,-0.8781,-0.8837,-0.8806,0,0,0,0,0,0,0,0,0,0,-0.8767,-0.8764,-0.8735,-0.8736,-0.8743,-0.8781,-0.8781,-0.8804,-0.8808,-0.8823,0,-0.8837,0,-0.8838,-0.8842,-0.8842,0,0,0,-0.874,-0.8761,-0.8768,-0.8736,-0.8744,-0.8781,-0.8763,-0.8806,-0.881,-0.8827,-0.8838,-0.884,-0.8839,-0.8842,-0.8843,-0.8938,-0.8939,0,0,-0.8738,-0.8744,-0.8765,-0.8771,-0.8765,-0.8762,-0.8764,-0.8808,-0.882,-0.8838,-0.8841,-0.884,-0.8843,-0.8843,-0.8938,-0.8938,0,0,0,-0.8734,-0.8742,-0.8748,-0.8769,-0.8775,-0.8763,-0.8766,-0.8818,-0.8819,-0.8841,-0.8841,-0.8843,-0.8844,-0.8937,-0.8938,-0.8972,0,0,0,-0.8732,-0.874,-0.8747,-0.8751,-0.8774,-0.8797,-0.8775,-0.8816,-0.8821,-0.884,-0.8843,-0.8844,-0.8936,-0.8937,-0.897,-0.8988,0,0,0,-0.8731,-0.874,-0.8746,-0.8751,-0.8768,-0.8796,-0.88,-0.8817,-0.8821,-0.8842,-0.8845,-0.8936,-0.8937,-0.8968,-0.8985,-0.9015,0,0,0,-0.8731,-0.8777,-0.8747,-0.8798,-0.8768,-0.8817,-0.8799,-0.8836,-0.8858,-0.8843,-0.8936,-0.8938,-0.8967,-0.8983,-0.9013,-0.9043,-0.9055,0,0,-0.8792,-0.8785,-0.8814,-0.8789,-0.8845,-0.8811,-0.8872,-0.8887,-0.8884,-0.892,-0.8923,-0.8971,-0.8985,-0.9015,-0.9123,-0.9133,0,0,0,-0.8836,-0.8857,-0.8871,-0.8892,-0.8904,-0.8917,-0.8921,-0.8927,-0.8957,-0.8904,-0.899,-0.8998,-0.9015,-0.9029,-0.9038,-0.9053,-0.8944,-0.8944,-0.8944,-0.8932,-0.8925,-0.8974,-0.8971,-0.8992,-0.8996,-0.9012,-0.9021,-0.9008,-0.9028,-0.9039,-0.9105,-0.9122,-0.9128,-0.9144,-0.9053,-0.9054,-0.9054,-0.9054,-0.9022,-0.9052,-0.9033,-0.9073,-0.9065,-0.9099,-0.9105,-0.9094,-0.9125,-0.9096,-0.9112,-0.9082,-0.914,-0.9153,-0.9056,-0.9056,-0.9056,-0.9055,-0.9055,-0.9085,-0.9098,-0.9104,-0.9133,-0.9157,-0.9152,-0.9183,-0.9174,-0.9167,-0.9181,-0.9192,-0.9192,-0.9191,-0.9187,-0.9187,-0.9187,-0.9188,-0.9188,-0.9188,-0.9149,-0.9154,-0.918,-0.9197,-0.9209,-0.9224,-0.9228,-0.924,-0.9251,-0.9243,-0.9243,-0.9228,-0.9146,-0.9126,-0.9192,-0.9191,-0.919,-0.919,-0.919,-0.9245,-0.9222,-0.9263,-0.9275,-0.9293,-0.9317,-0.9305,-0.933,-0.9339,-0.9354,-0.9335,-0.9276,-0.9268,-0.9261,-0.9244,-0.9337,-0.9337,-0.9337,-0.9337,-0.9299,-0.9294,-0.9333,-0.9353,-0.9372,-0.9365,-0.9412,-0.9415,-0.9415,-0.9419,-0.9405,-0.9382,-0.9375,-0.9371,-0.9361,-0.9346,-0.9462,-0.9462,-0.9462,-0.9358,-0.9354,-0.9395,-0.9394,-0.9407,-0.9419,-0.9462,-0.9486,-0.9481,-0.9467,-0.9423,-0.9418,-0.9381,-0.9369,-0.9355,-0.9341,-0.9313,0,0]},{"header":{"parameterUnit":"m.s-1","parameterCategory":1,"la1":30.2992,"la2":30.254,"lo1":-89.0895,"lo2":-89.0443,"dy":0.0025,"dx":0.0025,"nx":19,"ny":19,"refTime":"2026-03-16T09:00:00:Z","depth":0,"parameterNumber":3,"parameterNumberName":"V-component_of_WINDS"},"data":[0,0,0,-5.7471,-5.7473,-5.7557,-5.7557,-5.7676,-5.7677,0,0,0,0,0,0,0,0,0,0,0,-5.7455,-5.7456,-5.747,-5.7473,-5.7557,-5.7557,-5.7675,-5.7677,0,0,0,0,0,0,0,0,0,0,0,-5.7454,-5.7455,-5.7457,-5.7473,-5.7557,-5.7557,-5.7675,-5.7607,0,0,0,0,0,0,0,0,0,0,-5.7523,-5.7518,-5.7455,-5.7457,-5.7474,-5.7557,-5.7557,-5.7604,-5.7611,-5.7643,0,-5.7675,0,-5.7678,-5.7686,-5.7686,0,0,0,-5.7466,-5.7511,-5.7526,-5.7457,-5.7475,-5.7557,-5.7517,-5.7608,-5.7617,-5.7653,-5.7677,-5.7681,-5.768,-5.7686,-5.7687,-5.7899,-5.79,0,0,-5.7461,-5.7474,-5.7521,-5.7533,-5.7523,-5.7514,-5.752,-5.7613,-5.7638,-5.7677,-5.7683,-5.7682,-5.7687,-5.7688,-5.7898,-5.7899,0,0,0,-5.7453,-5.7471,-5.7483,-5.7528,-5.7543,-5.7517,-5.7523,-5.7634,-5.7637,-5.7685,-5.7684,-5.7688,-5.769,-5.7896,-5.7898,-5.7978,0,0,0,-5.7449,-5.7466,-5.7482,-5.749,-5.7541,-5.759,-5.7543,-5.7631,-5.7641,-5.7683,-5.7688,-5.7691,-5.7895,-5.7897,-5.7973,-5.8014,0,0,0,-5.7446,-5.7465,-5.7481,-5.7491,-5.7528,-5.7588,-5.7596,-5.7633,-5.7641,-5.7686,-5.7691,-5.7894,-5.7897,-5.7968,-5.8006,-5.8075,0,0,0,-5.7445,-5.7549,-5.7482,-5.7597,-5.7527,-5.7638,-5.7596,-5.7676,-5.7725,-5.7689,-5.7895,-5.7898,-5.7967,-5.8001,-5.807,-5.8136,-5.8164,0,0,-5.7583,-5.7566,-5.7632,-5.7575,-5.7702,-5.7624,-5.776,-5.7791,-5.7782,-5.786,-5.7865,-5.7975,-5.8005,-5.8074,-5.8318,-5.8341,0,0,0,-5.768,-5.7729,-5.7759,-5.7807,-5.7835,-5.7862,-5.787,-5.7882,-5.7948,-5.7826,-5.8017,-5.8035,-5.8074,-5.8105,-5.8125,-5.8158,-5.7913,-5.7912,-5.7912,-5.7893,-5.7879,-5.7988,-5.7984,-5.8031,-5.804,-5.8076,-5.8093,-5.8062,-5.8107,-5.8131,-5.8281,-5.8318,-5.8333,-5.8368,-5.8163,-5.8164,-5.8164,-5.8164,-5.8094,-5.816,-5.812,-5.8212,-5.8195,-5.8271,-5.8283,-5.8259,-5.8327,-5.8262,-5.8296,-5.8227,-5.8358,-5.8388,-5.817,-5.8169,-5.8168,-5.8168,-5.8167,-5.8233,-5.8262,-5.8276,-5.8345,-5.8399,-5.839,-5.8458,-5.8439,-5.8422,-5.8455,-5.8479,-5.8477,-5.8474,-5.8468,-5.8468,-5.8469,-5.8469,-5.8469,-5.847,-5.8371,-5.8384,-5.8445,-5.8485,-5.8514,-5.8549,-5.856,-5.8587,-5.8612,-5.8593,-5.8593,-5.8559,-5.8374,-5.8328,-5.8478,-5.8476,-5.8475,-5.8475,-5.8474,-5.8582,-5.8532,-5.8626,-5.8656,-5.8701,-5.8756,-5.8732,-5.879,-5.8809,-5.8843,-5.8802,-5.8668,-5.8648,-5.8632,-5.8595,-5.8804,-5.8804,-5.8804,-5.8804,-5.87,-5.8689,-5.8782,-5.883,-5.8875,-5.8864,-5.8969,-5.8978,-5.8979,-5.899,-5.8957,-5.8905,-5.889,-5.8879,-5.8858,-5.8823,-5.9086,-5.9086,-5.9086,-5.8829,-5.8822,-5.8917,-5.892,-5.8954,-5.8983,-5.9082,-5.9138,-5.9128,-5.9097,-5.8999,-5.8987,-5.8903,-5.8876,-5.8844,-5.8812,-5.8746,0,0]}]]